Location: Altamira
(10.5079°N, 66.8544°W)
Time: 16:51:38
(UTC+00:00)

NOSS 2-1 (E) - Pass Details

Date: 13 December 2025
Orbit: 385 x 1749 km, 63.3° (Epoch: 7 May)

Event Time Altitude Azimuth Distance (km) Brightness Sun altitude
Rises 22:21:23 0° 197° (SSW) 3,998 8.3 -4.0°
Reaches altitude 10° 22:24:33 10° 193° (SSW) 2,815 7.5 -4.7°
Maximum altitude 22:30:51 58° 116° (ESE) 912 4.2 -6.1°
Drops below altitude 10° 22:35:19 10° 37° (NE) 2,006 5.7 -7.2°
Enters shadow 22:36:22 - 34° (NE) 2,414 6.1 -7.4°
